[[{"header":{"parameterUnit":"m.s-1","parameterCategory":1,"la1":30.2991,"la2":30.254,"lo1":-89.0895,"lo2":-89.0444,"dy":0.0017,"dx":0.0017,"nx":28,"ny":28,"refTime":"2025-01-19T09:00:00:Z","depth":0,"parameterNumber":2,"parameterNumberName":"U-component_of_WINDS"},"data":[0,0,0,0,0,0,0,0,0,0,0,0,0,0,0,0,0,0,0,0,0,0,0,0,0,0,0,0,0,0,0,0,0,0,0,0,0,0,0,0,0,0,0,0,0,0,0,0,0,0,0,0,0,0,0,0,0,0,-1.3936,-1.3937,0,-1.4034,-1.4035,-1.4036,-1.3996,-1.3993,-1.3991,-1.3989,-1.4092,-1.4097,-1.4102,0,0,0,0,0,0,0,0,0,0,0,0,0,-1.3717,-1.3721,-1.3936,-1.3937,-1.3939,-1.4034,-1.4035,-1.4037,-1.3996,-1.3993,-1.399,-1.3988,-1.4091,-1.4097,-1.4102,0,0,0,0,0,0,0,0,0,0,0,0,0,-1.3813,-1.3722,-1.3936,-1.393,-1.393,-1.4034,-1.4035,-1.4037,-1.3997,-1.3993,-1.3989,-1.3986,-1.4089,-1.4096,-1.4103,-1.422,0,0,-1.4126,-1.4129,0,0,0,0,0,0,0,0,-1.3808,-1.3821,-1.3929,-1.393,-1.3931,-1.3999,-1.3996,-1.4098,-1.3997,-1.3972,-1.3989,-1.3984,-1.4064,-1.4074,-1.41,-1.4225,-1.4229,-1.4127,-1.4131,-1.4134,-1.4136,0,0,0,0,0,0,0,-1.3801,-1.3817,-1.3975,-1.3931,-1.3932,-1.3923,-1.3933,-1.4015,-1.4037,-1.3973,-1.3971,-1.3983,-1.4064,-1.4093,-1.4102,-1.4231,-1.4126,-1.4133,-1.4138,-1.4141,-1.4455,-1.4459,0,0,0,0,0,0,-1.3794,-1.3811,-1.3972,-1.3978,-1.3859,-1.393,-1.3941,-1.3981,-1.4036,-1.404,-1.3986,-1.398,-1.4082,-1.4093,-1.4105,-1.4246,-1.4134,-1.4141,-1.4146,-1.4451,-1.4456,-1.446,0,0,0,0,0,0,-1.3789,-1.3809,-1.3968,-1.3894,-1.3914,-1.3937,-1.3983,-1.3985,-1.4013,-1.4045,-1.4049,-1.4011,-1.4079,-1.4095,-1.4191,-1.4249,-1.4145,-1.4151,-1.4447,-1.4453,-1.4458,-1.4527,0,0,0,0,0,0,-1.3783,-1.3807,-1.3851,-1.3895,-1.3918,-1.4052,-1.3986,-1.3989,-1.4026,-1.402,-1.4069,-1.4074,-1.4078,-1.418,-1.4199,-1.4257,-1.4157,-1.4442,-1.4449,-1.4456,-1.452,-1.4534,-1.4547,0,0,0,0,0,-1.3775,-1.3868,-1.3854,-1.3873,-1.3973,-1.4055,-1.4068,-1.407,-1.403,-1.4075,-1.4095,-1.4073,-1.4239,-1.4191,-1.4211,-1.4272,-1.4438,-1.4447,-1.4456,-1.4514,-1.4532,-1.4547,0,0,0,0,0,0,-1.3832,-1.3873,-1.3859,-1.3967,-1.4008,-1.4048,-1.4105,-1.4089,-1.4142,-1.4135,-1.4135,-1.4146,-1.4246,-1.4268,-1.4214,-1.4387,-1.4333,-1.4346,-1.437,-1.4387,-1.44,-1.4394,-1.4163,0,0,0,0,0,-1.3856,-1.3919,-1.3952,-1.4045,-1.4066,-1.4082,-1.4118,-1.4115,-1.4157,-1.4175,-1.4202,-1.4245,-1.4307,-1.4348,-1.4406,-1.4522,-1.4532,-1.4574,-1.4587,-1.4598,-1.4611,-1.4674,-1.4693,-1.4489,-1.4489,-1.4489,0,0,-1.3909,-1.3939,-1.3979,-1.4057,-1.4088,-1.4153,-1.4097,-1.4169,-1.4217,-1.4186,-1.4279,-1.43,-1.4348,-1.4454,-1.4502,-1.4476,-1.4669,-1.461,-1.4618,-1.4625,-1.4685,-1.4704,-1.4721,-1.4495,-1.4494,-1.4493,0,0,-1.4039,-1.4067,-1.4148,-1.4179,-1.4226,-1.4236,-1.4255,-1.4298,-1.4311,-1.4403,-1.4381,-1.4438,-1.4545,-1.458,-1.4612,-1.4752,-1.4733,-1.4771,-1.4843,-1.4904,-1.492,-1.4935,-1.4986,-1.5004,-1.4782,-1.4782,-1.4783,0,-1.4099,-1.4195,-1.4192,-1.4265,-1.43,-1.4272,-1.4355,-1.4386,-1.445,-1.4476,-1.4444,-1.4576,-1.4607,-1.4721,-1.4755,-1.4781,-1.4804,-1.4767,-1.4918,-1.4932,-1.4946,-1.4994,-1.5014,-1.4787,-1.4786,-1.4786,-1.4785,0,-1.4267,-1.4334,-1.4394,-1.4455,-1.4497,-1.4574,-1.4583,-1.4625,-1.4618,-1.4631,-1.4725,-1.476,-1.4825,-1.4851,-1.4846,-1.4965,-1.4947,-1.4917,-1.4862,-1.4969,-1.5015,-1.5034,-1.4793,-1.4791,-1.479,-1.4789,0,0,-1.4438,-1.4494,-1.4516,-1.4544,-1.4592,-1.4645,-1.472,-1.4782,-1.4819,-1.4864,-1.4928,-1.5017,-1.4989,-1.5025,-1.5023,-1.5076,-1.5186,-1.504,-1.5041,-1.5067,-1.532,-1.5344,-1.5366,-1.5173,-1.5176,-1.5179,-1.5317,0,-1.4572,-1.4704,-1.4702,-1.4825,-1.4888,-1.4861,-1.4927,-1.4964,-1.4978,-1.5033,-1.5048,-1.5112,-1.507,-1.5091,-1.5143,-1.5162,-1.5237,-1.5151,-1.5234,-1.5237,-1.5225,-1.5389,-1.5415,-1.5544,-1.5334,-1.5337,-1.534,0,-1.4747,-1.4796,-1.4925,-1.4963,-1.499,-1.5049,-1.5105,-1.5158,-1.5199,-1.5205,-1.5244,-1.5233,-1.5311,-1.5251,-1.5358,-1.53,-1.5333,-1.5347,-1.5352,-1.5362,-1.5296,-1.5405,-1.5584,-1.5604,-1.5368,-1.5365,-1.5363,0,-1.4861,-1.4958,-1.5048,-1.5072,-1.5119,-1.5161,-1.5183,-1.5221,-1.5258,-1.5307,-1.5331,-1.5389,-1.5421,-1.5466,-1.5471,-1.5427,-1.5579,-1.552,-1.5587,-1.5588,-1.5623,-1.5621,-1.5812,-1.5641,-1.5641,-1.564,-1.564,0,-1.5012,-1.5093,-1.5099,-1.5155,-1.5244,-1.524,-1.5329,-1.5346,-1.538,-1.5439,-1.5419,-1.5474,-1.5476,-1.5533,-1.5537,-1.5626,-1.564,-1.5648,-1.5648,-1.5651,-1.565,-1.5675,-1.5666,-1.5645,-1.5644,-1.5643,-1.5642,0,-1.5155,-1.5163,-1.5259,-1.5295,-1.5305,-1.5369,-1.54,-1.5453,-1.5463,-1.5538,-1.5555,-1.5573,-1.5639,-1.5647,-1.5724,-1.5727,-1.5833,-1.5824,-1.582,-1.5819,-1.5886,-1.588,-1.6101,-1.613,-1.5938,-1.594,-1.5942,0,-1.5253,-1.5314,-1.5355,-1.5392,-1.5416,-1.5476,-1.5513,-1.5512,-1.5551,-1.5602,-1.5649,-1.5713,-1.5764,-1.587,-1.589,-1.5949,-1.5942,-1.6015,-1.5951,-1.5951,-1.5945,-1.5942,-1.5948,-1.6028,-1.603,-1.6032,-1.6033,0,-1.5425,-1.5425,-1.5479,-1.5535,-1.5579,-1.5623,-1.5664,-1.5695,-1.5699,-1.5744,-1.5811,-1.585,-1.5928,-1.5992,-1.6049,-1.6072,-1.6054,-1.6052,-1.6072,-1.6076,-1.6072,-1.6076,-1.5855,-1.6048,-1.6047,-1.6046,-1.6045,-1.6044,-1.555,-1.5602,-1.5639,-1.57,-1.573,-1.5768,-1.582,-1.5835,-1.589,-1.5953,-1.5948,-1.6022,-1.6061,-1.6136,-1.6162,-1.622,-1.6196,-1.6223,-1.6231,-1.6238,-1.6245,-1.606,-1.623,-1.623,-1.623,-1.6229,-1.6229,0,-1.5722,-1.5744,-1.58,-1.5857,-1.5904,-1.588,-1.5924,-1.5966,-1.603,-1.6067,-1.6117,-1.6193,-1.6254,-1.6278,-1.6337,-1.6379,-1.6372,-1.6395,-1.6393,-1.6399,-1.6263,-1.6241,-1.64,-1.6399,-1.6399,-1.6399,-1.6399,-1.6399,-1.5818,-1.5906,-1.591,-1.6013,-1.6034,-1.6105,-1.6132,-1.6167,-1.6197,-1.6282,-1.6332,-1.6346,-1.6378,-1.644,-1.6495,-1.65,-1.6524,-1.655,-1.6552,-1.6425,-1.6408,-1.6392,-1.6372,-1.6555,-1.6555,-1.6684,-1.6685,-1.6686]},{"header":{"parameterUnit":"m.s-1","parameterCategory":1,"la1":30.2991,"la2":30.254,"lo1":-89.0895,"lo2":-89.0444,"dy":0.0017,"dx":0.0017,"nx":28,"ny":28,"refTime":"2025-01-19T09:00:00:Z","depth":0,"parameterNumber":3,"parameterNumberName":"V-component_of_WINDS"},"data":[0,0,0,0,0,0,0,0,0,0,0,0,0,0,0,0,0,0,0,0,0,0,0,0,0,0,0,0,0,0,0,0,0,0,0,0,0,0,0,0,0,0,0,0,0,0,0,0,0,0,0,0,0,0,0,0,0,0,-7.0267,-7.0269,0,-7.0396,-7.0397,-7.0399,-7.0298,-7.0294,-7.029,-7.0286,-7.0413,-7.042,-7.0428,0,0,0,0,0,0,0,0,0,0,0,0,0,-6.9929,-6.9936,-7.0267,-7.0269,-7.027,-7.0396,-7.0397,-7.0399,-7.0299,-7.0294,-7.0289,-7.0284,-7.0411,-7.0419,-7.0428,0,0,0,0,0,0,0,0,0,0,0,0,0,-7.0069,-6.9938,-7.0267,-7.0236,-7.0234,-7.0395,-7.0397,-7.04,-7.03,-7.0294,-7.0287,-7.0281,-7.0408,-7.0418,-7.0429,-7.0627,0,0,-7.0463,-7.0468,0,0,0,0,0,0,0,0,-7.0061,-7.0081,-7.0239,-7.0238,-7.0237,-7.0324,-7.0325,-7.0476,-7.0302,-7.0275,-7.0285,-7.0278,-7.0389,-7.0401,-7.0439,-7.0633,-7.0638,-7.0464,-7.0471,-7.0476,-7.0479,0,0,0,0,0,0,0,-7.0051,-7.0075,-7.0318,-7.0241,-7.024,-7.0213,-7.0226,-7.0353,-7.0366,-7.0277,-7.027,-7.0287,-7.0387,-7.0428,-7.0441,-7.064,-7.0464,-7.0474,-7.0481,-7.0485,-7.1,-7.1007,0,0,0,0,0,0,-7.0046,-7.0068,-7.0314,-7.0322,-7.0131,-7.0225,-7.0239,-7.0303,-7.0365,-7.0368,-7.0292,-7.0281,-7.0413,-7.0428,-7.0445,-7.068,-7.0476,-7.0486,-7.0492,-7.0993,-7.1002,-7.101,0,0,0,0,0,0,-7.0039,-7.0068,-7.0308,-7.0193,-7.0221,-7.0237,-7.031,-7.0309,-7.035,-7.0376,-7.0377,-7.0333,-7.0408,-7.043,-7.0582,-7.0683,-7.0491,-7.0501,-7.0985,-7.0996,-7.1006,-7.1151,0,0,0,0,0,0,-7.0029,-7.0067,-7.0143,-7.0196,-7.0228,-7.0446,-7.0316,-7.0316,-7.037,-7.0358,-7.0415,-7.0418,-7.0405,-7.0566,-7.0593,-7.0694,-7.051,-7.0976,-7.099,-7.1002,-7.1137,-7.1165,-7.1189,0,0,0,0,0,-7.0018,-7.0178,-7.0148,-7.0178,-7.0325,-7.0452,-7.047,-7.0453,-7.0379,-7.0455,-7.0471,-7.0416,-7.0667,-7.0583,-7.0612,-7.0718,-7.097,-7.0986,-7.1001,-7.1125,-7.1159,-7.1188,0,0,0,0,0,0,-7.0136,-7.0185,-7.0151,-7.0334,-7.039,-7.0435,-7.053,-7.049,-7.0567,-7.0552,-7.0526,-7.054,-7.07,-7.0724,-7.0629,-7.0912,-7.0806,-7.0829,-7.089,-7.0923,-7.0948,-7.0939,-7.0519,0,0,0,0,0,-7.0184,-7.0285,-7.0321,-7.0478,-7.0508,-7.0515,-7.057,-7.0552,-7.0608,-7.063,-7.0658,-7.0713,-7.0804,-7.0865,-7.095,-7.114,-7.115,-7.1227,-7.1253,-7.1274,-7.1293,-7.1394,-7.1428,-7.1062,-7.1061,-7.1061,0,0,-7.0283,-7.0322,-7.0387,-7.0503,-7.0544,-7.0648,-7.0535,-7.065,-7.0725,-7.0647,-7.0793,-7.0816,-7.0875,-7.1047,-7.1124,-7.1072,-7.1397,-7.1294,-7.1311,-7.1319,-7.1414,-7.1449,-7.1479,-7.1072,-7.107,-7.1069,0,0,-7.0516,-7.0556,-7.0692,-7.0735,-7.0799,-7.0802,-7.0835,-7.0886,-7.0898,-7.1045,-7.0988,-7.1076,-7.1234,-7.1279,-7.1322,-7.1571,-7.1522,-7.1599,-7.1734,-7.1833,-7.1862,-7.1887,-7.1975,-7.2007,-7.1619,-7.1619,-7.1619,0,-7.0631,-7.0786,-7.0766,-7.0885,-7.0937,-7.0871,-7.1007,-7.105,-7.1138,-7.1174,-7.1115,-7.1311,-7.1347,-7.1528,-7.1588,-7.1626,-7.1661,-7.1593,-7.1859,-7.1885,-7.1908,-7.1992,-7.2025,-7.1628,-7.1627,-7.1626,-7.1625,0,-7.0923,-7.1032,-7.1133,-7.1221,-7.1284,-7.1411,-7.1408,-7.1474,-7.145,-7.1459,-7.1608,-7.1648,-7.174,-7.1781,-7.1759,-7.1959,-7.1925,-7.1863,-7.1757,-7.1952,-7.203,-7.2062,-7.1641,-7.1638,-7.1635,-7.1633,0,0,-7.1236,-7.1311,-7.1348,-7.1387,-7.1452,-7.1534,-7.1657,-7.1748,-7.1805,-7.1867,-7.1968,-7.2103,-7.2046,-7.2095,-7.2077,-7.2163,-7.2357,-7.2091,-7.2091,-7.2138,-7.2578,-7.2624,-7.2661,-7.2325,-7.2331,-7.2335,-7.2572,0,-7.1472,-7.1687,-7.1672,-7.1874,-7.1973,-7.1912,-7.2018,-7.2069,-7.208,-7.2164,-7.2175,-7.2271,-7.2189,-7.2218,-7.2301,-7.2316,-7.2444,-7.2298,-7.2417,-7.2421,-7.2404,-7.2702,-7.2752,-7.2974,-7.2603,-7.2608,-7.2612,0,-7.1776,-7.1851,-7.2064,-7.2113,-7.2153,-7.225,-7.2331,-7.2413,-7.2468,-7.247,-7.2525,-7.2491,-7.2613,-7.2504,-7.2669,-7.257,-7.2618,-7.2632,-7.264,-7.265,-7.2529,-7.272,-7.3044,-7.3077,-7.266,-7.2656,-7.2652,0,-7.1982,-7.2135,-7.2282,-7.2317,-7.2378,-7.2447,-7.2476,-7.2524,-7.258,-7.265,-7.2685,-7.2769,-7.2814,-7.2879,-7.2868,-7.2789,-7.3037,-7.2927,-7.304,-7.3041,-7.3095,-7.3092,-7.3431,-7.3126,-7.3126,-7.3125,-7.3124,0,-7.2248,-7.238,-7.2375,-7.2466,-7.2611,-7.2591,-7.2736,-7.2756,-7.2799,-7.2891,-7.2842,-7.2929,-7.2909,-7.2995,-7.2987,-7.3125,-7.3146,-7.3149,-7.3146,-7.3154,-7.3154,-7.3185,-7.3169,-7.3134,-7.3132,-7.313,-7.3129,0,-7.2503,-7.2505,-7.2661,-7.2706,-7.2721,-7.2826,-7.2863,-7.2948,-7.2954,-7.3071,-7.3097,-7.3107,-7.3205,-7.32,-7.3311,-7.3305,-7.3475,-7.3454,-7.3458,-7.3453,-7.3566,-7.3556,-7.3937,-7.3986,-7.365,-7.3653,-7.3656,0,-7.2672,-7.2773,-7.2829,-7.2887,-7.2921,-7.3015,-7.3072,-7.3055,-7.3115,-7.3185,-7.326,-7.3354,-7.3428,-7.3587,-7.3603,-7.3687,-7.3667,-7.3795,-7.3679,-7.3684,-7.3668,-7.3662,-7.3671,-7.3817,-7.3821,-7.3824,-7.3827,0,-7.2972,-7.2968,-7.3052,-7.3136,-7.3205,-7.3271,-7.333,-7.338,-7.337,-7.3439,-7.354,-7.3598,-7.3711,-7.3804,-7.3884,-7.391,-7.3867,-7.3863,-7.3893,-7.3903,-7.3901,-7.3903,-7.3519,-7.3854,-7.3852,-7.385,-7.3848,-7.3847,-7.3189,-7.3275,-7.3328,-7.3422,-7.3466,-7.3522,-7.3604,-7.3621,-7.3705,-7.3796,-7.3781,-7.3893,-7.3943,-7.4046,-7.4081,-7.4166,-7.4121,-7.4165,-7.4176,-7.4188,-7.42,-7.3888,-7.4181,-7.418,-7.4179,-7.4179,-7.4178,0,-7.3485,-7.3516,-7.3604,-7.3689,-7.3763,-7.3717,-7.378,-7.3845,-7.3945,-7.3996,-7.407,-7.4184,-7.4274,-7.4297,-7.4383,-7.4447,-7.4429,-7.447,-7.4465,-7.4472,-7.4237,-7.4202,-7.4483,-7.4483,-7.4483,-7.4483,-7.4483,-7.4483,-7.3649,-7.3792,-7.3794,-7.3957,-7.3986,-7.4097,-7.4137,-7.4188,-7.4229,-7.4359,-7.4434,-7.4449,-7.4488,-7.4576,-7.4656,-7.466,-7.4693,-7.4742,-7.4739,-7.4519,-7.4488,-7.4459,-7.4426,-7.475,-7.475,-7.4966,-7.4968,-7.497]}]]